EW6571 Weather Reports


Display with metric or nautical units.
time (UTC)temp
F
wind
direction
speed
MPH
gust
MPH
rain 1hr
in
rain 24hr
in
rain mn
in
humidity
%
barometer
mb
20260508103028 40 198 0.0 1.0 0.00 0.00 0.00 64 1008.4
20260508101523 39 198 0.0 0.0 0.00 0.00 0.00 65 1008.4
20260508100022 39 198 0.0 1.0 0.00 0.00 0.00 65 1008.2
20260508094518 40 198 0.0 4.0 0.00 0.00 0.00 62 1008.2
20260508093019 41 198 0.0 5.0 0.00 0.00 0.00 60 1008.1
20260508091516 41 198 0.0 5.0 0.00 0.00 0.00 61 1008.2
20260508090028 41 198 0.0 5.0 0.00 0.00 0.00 61 1008.0
20260508084512 41 198 0.0 3.0 0.00 0.00 0.00 60 1007.9
20260508083010 42 198 0.0 5.0 0.00 0.00 0.00 59 1008.0
20260508081508 42 198 0.0 0.0 0.00 0.00 0.00 59 1008.0
20260508080007 43 198 0.0 4.0 0.00 0.00 0.00 57 1007.8
20260508074506 43 198 0.0 2.0 0.00 0.00 0.00 56 1007.8
20260508073003 44 193 0.0 3.0 0.00 0.00 0.00 55 1007.8
20260508071503 43 193 0.0 4.0 0.00 0.00 0.00 57 1008.0
20260508064615 44 192 0.0 0.0 0.00 0.00 0.00 54 1007.9
20260508063109 45 192 1.0 5.0 0.00 0.00 0.00 53 1007.8
20260508061604 45 182 0.0 6.0 0.00 0.00 0.00 51 1007.6
20260508054549 47 169 0.0 5.0 0.00 0.00 0.00 48 1007.5
20260508053048 47 170 0.0 4.0 0.00 0.00 0.00 46 1007.5
20260508051605 48 146 0.0 4.0 0.00 0.00 0.00 44 1007.5
20260508050051 49 192 4.0 7.0 0.00 0.00 0.00 46 1007.6
20260508044550 49 184 0.0 0.0 0.00 0.00 0.00 45 1007.5
20260508043046 50 184 0.0 1.0 0.00 0.00 0.00 42 1007.6
20260508041546 50 112 6.0 8.0 0.00 0.00 0.00 40 1007.4
20260508040052 52 122 0.0 6.0 0.00 0.00 0.00 37 1007.6
20260508034550 51 180 0.0 6.0 0.00 0.00 0.00 41 1007.4
20260508033054 50 205 0.0 2.0 0.00 0.00 0.00 42 1007.3
20260508031554 50 205 0.0 2.0 0.00 0.00 0.00 44 1007.2
20260508030052 51 208 0.0 5.0 0.00 0.00 0.00 43 1006.8
20260508024611 52 209 0.0 6.0 0.00 0.00 0.00 42 1006.7
20260508023043 53 209 0.0 7.0 0.00 0.00 0.00 41 1006.6
20260508021548 58 248 2.0 12.0 0.00 0.00 0.00 33 1006.5
20260508020050 59 246 5.0 16.0 0.00 0.00 0.00 31 1006.6
20260508014549 60 259 11.0 17.0 0.00 0.00 0.00 31 1006.6
20260508013041 61 249 10.0 15.0 0.00 0.00 0.00 32 1006.4
20260508011541 62 273 2.0 14.0 0.00 0.00 0.00 32 1006.4
20260508010050 63 263 1.0 13.0 0.00 0.00 0.00 31 1006.5
20260508004549 63 268 12.0 23.0 0.00 0.00 0.00 28 1006.5
20260508003039 63 263 10.0 16.0 0.00 0.00 0.00 28 1006.5
20260508001544 63 261 12.0 22.0 0.00 0.00 0.00 28 1006.7
20260508000037 64 277 13.0 21.0 0.00 0.00 0.00 28 1006.5
20260507234537 64 271 12.0 18.0 0.00 0.00 0.00 30 1006.5
20260507233036 65 289 13.0 23.0 0.00 0.00 0.00 32 1006.5
20260507231536 63 257 13.0 20.0 0.00 0.00 0.00 30 1006.5
20260507230035 64 248 15.0 24.0 0.00 0.00 0.00 25 1006.5
20260507224533 64 240 17.0 22.0 0.00 0.00 0.00 25 1006.7
20260507223031 65 271 13.0 25.0 0.00 0.00 0.00 30 1006.7
20260507221533 64 275 12.0 22.0 0.00 0.00 0.00 35 1006.7
20260507220026 63 290 12.0 18.0 0.00 0.00 0.00 29 1006.9
20260507214524 64 286 15.0 21.0 0.00 0.00 0.00 31 1007.0
20260507213028 63 281 15.0 24.0 0.00 0.00 0.00 29 1007.3
20260507211519 62 291 14.0 20.0 0.00 0.00 0.00 37 1007.5
20260507210018 62 306 8.0 24.0 0.00 0.00 0.00 37 1007.6
20260507204517 60 256 10.0 18.0 0.00 0.00 0.00 40 1007.7
20260507203031 60 248 10.0 21.0 0.00 0.00 0.00 38 1007.8
20260507201517 60 270 11.0 17.0 0.00 0.00 0.00 39 1007.8
20260507200015 61 267 11.0 15.0 0.00 0.00 0.00 38 1008.0
20260507194519 62 260 15.0 24.0 0.00 0.00 0.00 37 1008.2
20260507193012 60 250 13.0 23.0 0.00 0.00 0.00 37 1008.3
20260507191511 62 263 15.0 23.0 0.00 0.00 0.00 38 1008.5
20260507190012 60 287 7.0 17.0 0.00 0.00 0.00 41 1008.8
20260507184504 59 290 0.0 0.0 0.00 0.00 0.00 43 1009.0
20260507183008 59 298 8.0 13.0 0.00 0.00 0.00 43 1009.1
20260507181601 59 294 2.0 11.0 0.00 0.00 0.00 41 1009.3
20260507180059 59 292 2.0 11.0 0.00 0.00 0.00 43 1009.6
20260507174602 58 301 1.0 11.0 0.00 0.00 0.00 44 1009.8
20260507173125 57 256 0.0 8.0 0.00 0.00 0.00 44 1010.0
20260507171551 57 105 0.0 8.0 0.00 0.00 0.00 43 1010.0
20260507170049 55 152 0.0 1.0 0.00 0.00 0.00 47 1010.3
20260507164544 54 156 0.0 6.0 0.00 0.00 0.00 47 1010.7
20260507163041 54 145 0.0 7.0 0.00 0.00 0.00 45 1010.8
20260507161545 54 184 2.0 6.0 0.00 0.00 0.00 45 1011.0
20260507160038 53 114 5.0 10.0 0.00 0.00 0.00 45 1011.0
20260507154531 52 127 4.0 8.0 0.00 0.00 0.00 48 1011.2
20260507153027 51 221 0.0 2.0 0.00 0.00 0.00 56 1011.4
20260507151522 50 221 0.0 0.0 0.00 0.00 0.00 56 1011.6
20260507150034 49 221 0.0 0.0 0.00 0.00 0.00 55 1011.7
20260507144521 48 221 0.0 0.0 0.00 0.00 0.00 56 1011.7
20260507143017 47 221 0.0 0.0 0.00 0.00 0.00 58 1011.9
20260507141516 47 221 0.0 0.0 0.00 0.00 0.00 61 1011.9
20260507140015 46 221 0.0 0.0 0.00 0.00 0.00 61 1012.0
20260507134513 45 221 0.0 0.0 0.00 0.00 0.00 63 1012.0
20260507133009 42 220 0.0 0.0 0.00 0.00 0.00 70 1012.3
20260507131505 39 220 0.0 0.0 0.00 0.00 0.00 72 1012.2
20260507130005 38 220 0.0 0.0 0.00 0.00 0.00 71 1012.1
20260507124504 39 220 0.0 0.0 0.00 0.00 0.00 70 1012.1
20260507123002 40 220 0.0 0.0 0.00 0.00 0.00 69 1012.3
20260507121603 40 220 0.0 3.0 0.00 0.00 0.00 69 1012.6
20260507120105 39 220 0.0 3.0 0.00 0.00 0.00 71 1012.6
20260507114700 39 220 0.0 1.0 0.00 0.00 0.00 71 1012.5
20260507113058 39 220 0.0 3.0 0.00 0.00 0.00 71 1012.6
20260507111600 39 220 0.0 2.0 0.00 0.00 0.00 71 1012.7
20260507110054 39 220 0.0 3.0 0.00 0.00 0.00 70 1012.9
20260507104552 39 220 0.0 0.0 0.00 0.00 0.00 70 1013.0